• în România
  • Lista ţărilor
  • Pe 7 zile
  • Temperatura apei
  • Hartă satelitară
  • Meteo pe hartă
  • Widget-uri
  • user-avatar
    Intrare

    Meteo pe oră la Wzorki

    Astăzi, 22 Octombrie, Luni

    Timp Temperatura Precipitaţii Vânt Presiune Umiditate
    00:00 +5°C° 0 mm 0 m/s 745 mmHg 85%
    01:00 +5°C° 0 mm 0 m/s 745 mmHg 86%
    02:00 +4°C° 0 mm 0 m/s 745 mmHg 87%
    03:00 +4°C° 0 mm 0 m/s 744 mmHg 87%
    04:00 +4°C° 0 mm 0 m/s 744 mmHg 88%
    05:00 +4°C° 0 mm 0 m/s 744 mmHg 87%
    06:00 +4°C° 0 mm 0 m/s 744 mmHg 87%
    07:00 +4°C° 0 mm 0 m/s 744 mmHg 86%
    08:00 +6°C° 0 mm 0 m/s 744 mmHg 78%
    09:00 +8°C° 0 mm 0 m/s 744 mmHg 69%
    10:00 +11°C° 0 mm 1 m/s 744 mmHg 60%
    11:00 +12°C° 0 mm 1 m/s 743 mmHg 57%
    12:00 +13°C° 0 mm 1 m/s 743 mmHg 53%
    13:00 +14°C° 0 mm 1 m/s 743 mmHg 49%
    14:00 +13°C° 0 mm 2 m/s 742 mmHg 52%
    15:00 +13°C° 0 mm 2 m/s 742 mmHg 54%
    16:00 +12°C° 0 mm 2 m/s 741 mmHg 56%
    17:00 +10°C° 0 mm 2 m/s 742 mmHg 60%
    18:00 +9°C° 0 mm 2 m/s 742 mmHg 64%
    19:00 +8°C° 0 mm 2 m/s 742 mmHg 68%
    20:00 +8°C° 0.2 mm 3 m/s 742 mmHg 71%
    21:00 +8°C° 0.2 mm 3 m/s 742 mmHg 74%
    22:00 +8°C° 0.2 mm 4 m/s 742 mmHg 77%
    23:00 +7°C° 0.2 mm 4 m/s 742 mmHg 79%

    Mâine, 23 Octombrie, Marţi

    Timp Temperatura Precipitaţii Vânt Presiune Umiditate
    00:00 +7°C° 0.2 mm 4 m/s 742 mmHg 80%
    01:00 +7°C° 0.2 mm 5 m/s 742 mmHg 82%
    02:00 +6°C° 0.1 mm 4 m/s 742 mmHg 84%
    03:00 +5°C° 0.1 mm 4 m/s 742 mmHg 86%
    04:00 +4°C° 0.1 mm 3 m/s 741 mmHg 88%
    05:00 +4°C° 0 mm 4 m/s 741 mmHg 87%
    06:00 +4°C° 0 mm 4 m/s 741 mmHg 86%
    07:00 +4°C° 0 mm 4 m/s 741 mmHg 86%
    08:00 +5°C° 0 mm 4 m/s 741 mmHg 78%
    09:00 +6°C° 0 mm 5 m/s 740 mmHg 71%
    10:00 +7°C° 0 mm 6 m/s 739 mmHg 64%
    11:00 +7°C° 0.2 mm 6 m/s 738 mmHg 63%
    12:00 +6°C° 0.2 mm 7 m/s 737 mmHg 63%
    13:00 +6°C° 0.2 mm 7 m/s 736 mmHg 62%
    14:00 +6°C° 0.2 mm 8 m/s 735 mmHg 64%
    15:00 +6°C° 0.2 mm 8 m/s 734 mmHg 66%
    16:00 +6°C° 0.2 mm 9 m/s 733 mmHg 69%
    17:00 +6°C° 0.6 mm 9 m/s 732 mmHg 72%
    18:00 +6°C° 0.6 mm 9 m/s 731 mmHg 75%
    19:00 +6°C° 0.6 mm 10 m/s 730 mmHg 78%
    20:00 +6°C° 0.6 mm 10 m/s 730 mmHg 78%
    21:00 +7°C° 0.6 mm 10 m/s 729 mmHg 79%
    22:00 +8°C° 0.6 mm 10 m/s 728 mmHg 79%
    23:00 +8°C° 1.1 mm 10 m/s 727 mmHg 81%

    Poimâine, 24 Octombrie, Miercuri

    Timp Temperatura Precipitaţii Vânt Presiune Umiditate
    00:00 +8°C° 1.1 mm 9 m/s 727 mmHg 83%
    01:00 +8°C° 1.1 mm 9 m/s 726 mmHg 84%
    02:00 +8°C° 1.4 mm 9 m/s 725 mmHg 84%
    03:00 +8°C° 1.4 mm 10 m/s 724 mmHg 83%
    04:00 +8°C° 1.4 mm 10 m/s 724 mmHg 82%
    05:00 +7°C° 1.1 mm 10 m/s 724 mmHg 76%
    06:00 +6°C° 1.1 mm 10 m/s 725 mmHg 70%
    07:00 +5°C° 1.1 mm 10 m/s 725 mmHg 65%
    08:00 +4°C° 0.1 mm 11 m/s 726 mmHg 60%
    09:00 +4°C° 0.1 mm 11 m/s 727 mmHg 55%
    10:00 +4°C° 0.1 mm 11 m/s 728 mmHg 50%
    11:00 +4°C° 0 mm 11 m/s 728 mmHg 48%
    12:00 +4°C° 0 mm 11 m/s 728 mmHg 46%
    13:00 +4°C° 0 mm 11 m/s 729 mmHg 44%
    14:00 +5°C° 0 mm 10 m/s 729 mmHg 45%
    15:00 +5°C° 0 mm 9 m/s 729 mmHg 46%
    16:00 +3°C° 0 mm 9 m/s 730 mmHg 47%
    17:00 +4°C° 0 mm 8 m/s 730 mmHg 49%
    18:00 +4°C° 0 mm 8 m/s 731 mmHg 50%
    19:00 +2°C° 0 mm 8 m/s 732 mmHg 52%
    20:00 +2°C° 0 mm 8 m/s 732 mmHg 53%
    21:00 +1°C° 0 mm 8 m/s 733 mmHg 55%
    22:00 +1°C° 0 mm 8 m/s 733 mmHg 57%
    23:00 +2°C° 0 mm 7 m/s 734 mmHg 59%

    25 Octombrie, Joi

    Timp Temperatura Precipitaţii Vânt Presiune Umiditate
    00:00 +2°C° 0 mm 7 m/s 734 mmHg 60%
    01:00 +2°C° 0 mm 7 m/s 735 mmHg 62%
    02:00 0°C° 0 mm 7 m/s 735 mmHg 65%
    03:00 +1°C° 0 mm 6 m/s 736 mmHg 68%
    04:00 +1°C° 0 mm 6 m/s 736 mmHg 71%
    05:00 +1°C° 0 mm 6 m/s 736 mmHg 73%
    06:00 +1°C° 0 mm 6 m/s 736 mmHg 74%
    07:00 -1°C° 0 mm 6 m/s 737 mmHg 76%
    08:00 +2°C° 0 mm 6 m/s 737 mmHg 71%
    09:00 +3°C° 0 mm 6 m/s 737 mmHg 66%
    10:00 +5°C° 0 mm 7 m/s 737 mmHg 62%
    11:00 +5°C° 0 mm 7 m/s 736 mmHg 62%
    12:00 +5°C° 0 mm 7 m/s 736 mmHg 63%
    13:00 +6°C° 0 mm 7 m/s 735 mmHg 64%
    14:00 +6°C° 0.1 mm 7 m/s 735 mmHg 69%
    15:00 +6°C° 0.1 mm 7 m/s 735 mmHg 74%
    16:00 +7°C° 0.1 mm 6 m/s 735 mmHg 79%
    17:00 +7°C° 0.1 mm 6 m/s 734 mmHg 79%
    18:00 +7°C° 0.1 mm 6 m/s 734 mmHg 80%
    19:00 +8°C° 0.1 mm 6 m/s 734 mmHg 80%
    20:00 +8°C° 0 mm 6 m/s 734 mmHg 82%
    21:00 +7°C° 0 mm 5 m/s 734 mmHg 84%
    22:00 +7°C° 0 mm 5 m/s 734 mmHg 85%
    23:00 +7°C° 0 mm 5 m/s 734 mmHg 87%

    26 Octombrie, Vineri

    Timp Temperatura Precipitaţii Vânt Presiune Umiditate
    00:00 +7°C° 0 mm 5 m/s 734 mmHg 88%
    01:00 +7°C° 0 mm 5 m/s 734 mmHg 89%
    02:00 +7°C° 0 mm 5 m/s 734 mmHg 89%
    03:00 +6°C° 0 mm 5 m/s 734 mmHg 90%
    04:00 +6°C° 0 mm 4 m/s 734 mmHg 90%
    05:00 +6°C° 0 mm 4 m/s 734 mmHg 90%
    06:00 +6°C° 0 mm 4 m/s 734 mmHg 91%
    07:00 +6°C° 0 mm 4 m/s 734 mmHg 91%
    08:00 +7°C° 0 mm 4 m/s 734 mmHg 83%
    09:00 +10°C° 0 mm 4 m/s 734 mmHg 74%
    10:00 +10°C° 0 mm 5 m/s 734 mmHg 66%
    11:00 +12°C° 0 mm 4 m/s 733 mmHg 63%
    12:00 +13°C° 0 mm 4 m/s 733 mmHg 60%
    13:00 +13°C° 0 mm 4 m/s 732 mmHg 57%
    14:00 +13°C° 0 mm 3 m/s 732 mmHg 61%
    15:00 +13°C° 0 mm 2 m/s 732 mmHg 64%
    16:00 +12°C° 0 mm 2 m/s 731 mmHg 68%
    17:00 +10°C° 0 mm 2 m/s 731 mmHg 72%
    18:00 +10°C° 0 mm 2 m/s 731 mmHg 75%
    19:00 +9°C° 0 mm 2 m/s 731 mmHg 79%
    20:00 +8°C° 0 mm 2 m/s 731 mmHg 81%
    21:00 +8°C° 0 mm 2 m/s 731 mmHg 83%
    22:00 +8°C° 0 mm 2 m/s 730 mmHg 85%
    23:00 +8°C° 0 mm 2 m/s 730 mmHg 86%

    27 Octombrie, Sâmbătă

    Timp Temperatura Precipitaţii Vânt Presiune Umiditate
    00:00 +7°C° 0 mm 2 m/s 730 mmHg 86%
    01:00 +7°C° 0 mm 2 m/s 730 mmHg 87%
    02:00 +7°C° 0 mm 2 m/s 730 mmHg 88%
    03:00 +7°C° 0 mm 2 m/s 729 mmHg 89%
    04:00 +7°C° 0 mm 2 m/s 729 mmHg 89%
    05:00 +7°C° 0 mm 2 m/s 729 mmHg 90%
    06:00 +8°C° 0 mm 2 m/s 729 mmHg 90%
    07:00 +8°C° 0 mm 2 m/s 728 mmHg 91%
    08:00 +10°C° 0 mm 2 m/s 728 mmHg 84%
    09:00 +12°C° 0 mm 2 m/s 728 mmHg 76%
    10:00 +13°C° 0 mm 3 m/s 728 mmHg 69%
    11:00 +14°C° 0 mm 3 m/s 727 mmHg 70%
    12:00 +14°C° 0 mm 3 m/s 726 mmHg 71%
    13:00 +14°C° 0 mm 3 m/s 726 mmHg 71%
    14:00 +14°C° 0.3 mm 3 m/s 725 mmHg 74%
    15:00 +14°C° 0.3 mm 3 m/s 725 mmHg 77%
    16:00 +14°C° 0.3 mm 3 m/s 724 mmHg 81%
    17:00 +13°C° 0.2 mm 3 m/s 724 mmHg 82%
    18:00 +13°C° 0.2 mm 3 m/s 724 mmHg 83%
    19:00 +14°C° 0.2 mm 2 m/s 724 mmHg 84%
    20:00 +12°C° 0.1 mm 3 m/s 724 mmHg 84%
    21:00 +12°C° 0.1 mm 3 m/s 724 mmHg 85%
    22:00 +12°C° 0.1 mm 3 m/s 724 mmHg 85%
    23:00 +11°C° 0.4 mm 4 m/s 724 mmHg 86%
    Arată mai mult